Location: ??????
(41.3164°N, 22.6615°E)
Time: 05:00:18
(UTC+00:00)

CUBEBUG 2 - Pass Details

Date: 01 July 2022
Orbit: 584 x 692 km, 97.7° (Epoch: 17 August)

Event Time Altitude Azimuth Distance (km) Brightness Sun altitude
Rises 02:14:50 0° 1° (N) 2,832 ? -7.6°
Reaches altitude 10° 02:17:11 10° 350° (N) 1,935 ? -7.3°
Maximum altitude 02:20:47 29° 290° (WNW) 1,122 ? -6.8°
Drops below altitude 10° 02:24:27 10° 231° (SW) 1,966 ? -6.2°
Enters shadow 02:25:02 - 227° (SW) 2,174 ? -6.2°
